Location: Arrien
(42.8963°N, 1.0429°E)
Time: 11:48:49
(UTC+00:00)

SL-16 R/B - Visible Passes

Search period start: 15 March 2026 00:00
Search period end: 25 March 2026 00:00
Orbit: 841 x 845 km, 71.0° (Epoch: 14 March)

Date Brightness Start Highest point End Pass type
(mag) Time Alt. Az. Time Alt. Az. Time Alt. Az.
15 Mar 4.9 01:54:47 12° N 01:54:47 12° N 01:55:14 10° N visible
16 Mar 4.9 01:40:11 11° N 01:40:11 11° N 01:40:34 10° N visible
17 Mar 5.0 01:25:34 11° N 01:25:34 11° N 01:25:53 10° N visible
18 Mar 5.0 01:10:56 11° N 01:10:56 11° N 01:11:12 10° N visible
19 Mar 5.1 00:56:16 11° N 00:56:16 11° N 00:56:31 10° N visible
20 Mar 5.1 00:41:34 11° N 00:41:34 11° N 00:41:50 10° N visible
21 Mar 5.1 00:26:51 11° N 00:26:51 11° N 00:27:08 10° N visible
22 Mar 5.1 00:12:06 11° N 00:12:06 11° N 00:12:27 10° N visible
22 Mar 5.0 23:57:18 12° N 23:57:18 12° N 23:57:45 10° N visible
23 Mar 5.0 23:42:28 13° N 23:42:28 13° N 23:43:03 10° N visible
24 Mar 4.9 23:27:34 14° N 23:27:34 14° N 23:28:21 10° N visible
